NOS789 KJFK-LIMC

Flight info

Callsign NOS789
Flight time N/A
Altitude 37000
Route HAPIE DCT YAHOO DCT KANNI N253A JOOPY/M085F370 DCT 49N050W 51N040W 52N030W 52N020W DCT DINIM DCT ELSOX DCT TAKAS/N0490F370 DCT ALUTA DCT KORER DCT LEMKA DCT BEBIX DCT VALKU DCT TIS DCT MEBAK DCT GIPNO DCT BALSI DCT OBIGO DCT ROBEX DCT LAPRI DCT MOGBO DCT TOP M135 ASTIG
Aircraft B789/H-SDE1E2E3FGHIJ2J3J4J5M1RWXY/LB1D1

Departure

Time 2026-05-09 09:23
Airport John F. Kennedy International Airport (KJFK)

Arrival

Time N/A
Airport Milan Malpensa International Airport (LIMC)
Time Latitude Longitude Altitude Speed Heading
2026-05-09 08:57 40.64257 -73.77945 21 ft 0 kts 30°
2026-05-09 09:16 40.64256 -73.77946 21 ft 2 kts 30°
2026-05-09 09:16 40.64218 -73.77976 24 ft 4 kts 30°
2026-05-09 09:16 40.64194 -73.77994 23 ft 4 kts 30°
2026-05-09 09:17 40.64174 -73.78017 25 ft 4 kts 81°
2026-05-09 09:17 40.64179 -73.78037 26 ft 0 kts 147°
2026-05-09 09:18 40.64176 -73.78034 26 ft 1 kts 147°
2026-05-09 09:18 40.64127 -73.78021 21 ft 18 kts 170°
2026-05-09 09:18 40.63974 -73.77946 22 ft 24 kts 174°
2026-05-09 09:18 40.63810 -73.77921 21 ft 26 kts 173°
2026-05-09 09:19 40.63618 -73.77890 22 ft 23 kts 170°
2026-05-09 09:19 40.63560 -73.77807 21 ft 6 kts 82°
2026-05-09 09:19 40.63610 -73.77745 21 ft 22 kts 32°
2026-05-09 09:19 40.63776 -73.77616 22 ft 28 kts 31°
2026-05-09 09:20 40.63977 -73.77460 21 ft 37 kts 31°
2026-05-09 09:20 40.64191 -73.77291 21 ft 35 kts 31°
2026-05-09 09:20 40.64381 -73.77144 21 ft 22 kts 30°
2026-05-09 09:20 40.64419 -73.77054 21 ft 12 kts 91°
2026-05-09 09:21 40.64392 -73.76919 22 ft 16 kts 119°
2026-05-09 09:21 40.64352 -73.76892 23 ft 4 kts 182°
2026-05-09 09:21 40.64329 -73.76900 22 ft 3 kts 204°
2026-05-09 09:21 40.64321 -73.76906 24 ft 0 kts 209°
2026-05-09 09:22 40.64294 -73.76926 25 ft 23 kts 209°
2026-05-09 09:22 40.63920 -73.77218 30 ft 102 kts 211°
2026-05-09 09:23 40.63102 -73.77855 32 ft 168 kts 210°
2026-05-09 09:23 40.62119 -73.78697 754 ft 165 kts 213°
2026-05-09 09:23 40.61005 -73.78978 1404 ft 178 kts 166°
2026-05-09 09:23 40.60044 -73.77891 1994 ft 210 kts 121°
2026-05-09 09:24 40.59844 -73.75823 2500 ft 251 kts 79°
2026-05-09 09:24 40.60369 -73.73506 3277 ft 277 kts 75°
2026-05-09 09:24 40.60821 -73.71046 3911 ft 283 kts 82°
2026-05-09 09:24 40.60958 -73.68422 4815 ft 287 kts 94°
2026-05-09 09:25 40.60733 -73.65793 5819 ft 290 kts 108°
2026-05-09 09:25 40.60069 -73.63405 6812 ft 290 kts 120°
2026-05-09 09:25 40.59158 -73.60970 7793 ft 295 kts 122°
2026-05-09 09:25 40.58258 -73.58507 8750 ft 302 kts 118°
2026-05-09 09:26 40.57446 -73.55934 9718 ft 308 kts 116°
2026-05-09 09:26 40.56629 -73.53286 10389 ft 323 kts 116°
2026-05-09 09:26 40.55709 -73.50455 10671 ft 350 kts 116°
2026-05-09 09:26 40.54704 -73.47406 10924 ft 377 kts 116°
2026-05-09 09:27 40.53644 -73.44131 11322 ft 397 kts 115°
2026-05-09 09:27 40.52570 -73.40782 12254 ft 401 kts 115°
2026-05-09 09:27 40.51481 -73.37429 13039 ft 408 kts 115°
2026-05-09 09:27 40.50351 -73.33975 13863 ft 414 kts 115°
2026-05-09 09:28 40.49207 -73.30467 14574 ft 421 kts 115°
2026-05-09 09:28 40.48048 -73.26907 15302 ft 427 kts 116°
2026-05-09 09:28 40.46853 -73.23246 16013 ft 434 kts 116°
2026-05-09 09:28 40.45654 -73.19583 16716 ft 440 kts 116°
2026-05-09 09:29 40.44451 -73.15912 17397 ft 446 kts 117°
2026-05-09 09:29 40.43199 -73.12095 18084 ft 453 kts 117°
2026-05-09 09:29 40.41945 -73.08275 18694 ft 459 kts 117°
2026-05-09 09:29 40.40679 -73.04397 19292 ft 464 kts 115°
2026-05-09 09:30 40.39838 -73.00321 19833 ft 475 kts 101°
2026-05-09 09:30 40.39650 -72.95973 20406 ft 482 kts 86°
2026-05-09 09:30 40.40169 -72.91621 20970 ft 485 kts 72°
2026-05-09 09:30 40.41111 -72.87353 21485 ft 490 kts 71°
2026-05-09 09:31 40.42088 -72.83056 22060 ft 494 kts 71°
2026-05-09 09:31 40.43083 -72.78723 22576 ft 498 kts 71°
2026-05-09 09:31 40.44067 -72.74343 23123 ft 503 kts 71°
2026-05-09 09:32 40.46048 -72.65456 24067 ft 511 kts 71°
2026-05-09 09:32 40.47058 -72.60966 24500 ft 514 kts 71°
2026-05-09 09:32 40.48068 -72.56452 24929 ft 517 kts 71°
2026-05-09 09:32 40.49078 -72.51903 25343 ft 520 kts 71°
2026-05-09 09:33 40.50095 -72.47320 25749 ft 524 kts 71°
2026-05-09 09:33 40.51118 -72.42714 26160 ft 527 kts 71°
2026-05-09 09:33 40.52143 -72.38089 26550 ft 530 kts 71°
2026-05-09 09:33 40.53172 -72.33424 26937 ft 533 kts 71°
2026-05-09 09:34 40.54205 -72.28733 27311 ft 536 kts 71°
2026-05-09 09:34 40.55236 -72.24045 27679 ft 538 kts 71°
2026-05-09 09:34 40.56277 -72.19304 28049 ft 541 kts 71°
2026-05-09 09:36 40.63656 -71.85376 30350 ft 560 kts 71°
2026-05-09 09:36 40.64721 -71.80439 30611 ft 562 kts 71°
2026-05-09 09:36 40.65789 -71.75469 30862 ft 565 kts 71°
2026-05-09 09:37 40.66844 -71.70551 31113 ft 567 kts 71°
2026-05-09 09:37 40.67918 -71.65537 31363 ft 569 kts 71°
2026-05-09 09:37 40.68989 -71.60519 31676 ft 570 kts 71°
2026-05-09 09:37 40.70061 -71.55486 32040 ft 569 kts 71°
2026-05-09 09:38 40.71128 -71.50465 32378 ft 569 kts 71°
2026-05-09 09:38 40.72193 -71.45445 32731 ft 569 kts 71°
2026-05-09 09:38 40.73255 -71.40424 33068 ft 568 kts 71°
2026-05-09 09:38 40.74314 -71.35408 33418 ft 568 kts 71°
2026-05-09 09:39 40.75371 -71.30384 33751 ft 568 kts 71°
2026-05-09 09:39 40.76426 -71.25364 34091 ft 568 kts 71°
2026-05-09 09:39 40.77478 -71.20343 34362 ft 568 kts 71°
2026-05-09 09:39 40.78528 -71.15321 34603 ft 568 kts 71°
2026-05-09 09:40 40.79562 -71.10365 34856 ft 569 kts 71°
2026-05-09 09:40 40.80609 -71.05332 35109 ft 569 kts 71°
2026-05-09 09:40 40.81656 -71.00285 35365 ft 570 kts 71°
2026-05-09 09:40 40.82701 -70.95242 35607 ft 570 kts 71°
2026-05-09 09:41 40.83745 -70.90187 35858 ft 570 kts 71°
2026-05-09 09:41 40.84786 -70.85131 36114 ft 571 kts 71°
2026-05-09 09:41 40.85825 -70.80080 36371 ft 571 kts 71°
2026-05-09 09:41 40.86865 -70.75009 36622 ft 571 kts 72°
2026-05-09 09:42 40.87898 -70.69953 36968 ft 569 kts 72°
2026-05-09 09:42 40.89966 -70.59813 37052 ft 571 kts 72°
2026-05-09 09:43 40.92010 -70.49723 37056 ft 566 kts 72°
2026-05-09 09:43 40.94038 -70.39685 37056 ft 565 kts 72°
2026-05-09 09:44 40.96054 -70.29641 37059 ft 565 kts 72°
2026-05-09 09:44 40.98064 -70.19586 37056 ft 566 kts 72°
2026-05-09 09:45 41.00066 -70.09514 37057 ft 566 kts 72°
2026-05-09 09:45 41.02058 -69.99445 37062 ft 565 kts 72°
2026-05-09 09:46 41.04041 -69.89371 37064 ft 565 kts 72°
2026-05-09 09:46 41.06038 -69.79305 37070 ft 563 kts 68°
2026-05-09 09:46 41.07512 -69.74547 37083 ft 556 kts 56°
2026-05-09 09:47 41.09551 -69.70237 37095 ft 548 kts 45°
2026-05-09 09:47 41.14241 -69.62304 37082 ft 546 kts 45°
2026-05-09 09:48 41.18946 -69.54385 37082 ft 546 kts 45°
2026-05-09 09:48 41.23633 -69.46442 37079 ft 547 kts 45°
2026-05-09 09:49 41.28324 -69.38490 37087 ft 546 kts 45°
2026-05-09 09:49 41.33004 -69.30527 37090 ft 547 kts 45°
2026-05-09 09:50 41.37682 -69.22549 37087 ft 546 kts 45°
2026-05-09 09:50 41.42347 -69.14573 37087 ft 545 kts 46°
2026-05-09 09:51 41.47000 -69.06597 37089 ft 544 kts 46°
2026-05-09 09:51 41.51640 -68.98621 37086 ft 544 kts 46°
2026-05-09 09:52 41.56274 -68.90635 37086 ft 544 kts 46°
2026-05-09 09:52 41.60901 -68.82640 37085 ft 543 kts 46°
2026-05-09 09:53 41.65515 -68.74646 37086 ft 543 kts 46°
2026-05-09 09:53 41.70087 -68.66704 37074 ft 542 kts 46°
2026-05-09 09:54 41.74680 -68.58706 37080 ft 541 kts 46°
2026-05-09 09:54 41.78515 -68.52009 37082 ft 541 kts 46°
2026-05-09 09:55 41.83058 -68.44060 37081 ft 540 kts 46°
2026-05-09 09:55 41.87624 -68.36049 37082 ft 541 kts 46°
2026-05-09 09:56 41.92186 -68.28023 37084 ft 540 kts 46°
2026-05-09 09:56 41.96733 -68.20001 37078 ft 539 kts 46°
2026-05-09 09:57 42.01259 -68.11997 37079 ft 538 kts 46°
2026-05-09 09:57 42.05788 -68.03966 37076 ft 539 kts 46°
2026-05-09 09:58 42.10310 -67.95924 37076 ft 539 kts 47°
2026-05-09 09:58 42.14830 -67.87866 37074 ft 539 kts 47°
2026-05-09 09:59 42.19338 -67.79808 37080 ft 538 kts 47°
2026-05-09 09:59 42.23840 -67.71738 37072 ft 538 kts 47°
2026-05-09 10:00 42.28338 -67.63655 37055 ft 539 kts 47°
2026-05-09 10:00 42.32835 -67.55550 37066 ft 539 kts 47°
2026-05-09 10:01 42.37322 -67.47442 37067 ft 539 kts 47°
2026-05-09 10:01 42.41812 -67.39308 37072 ft 539 kts 47°
2026-05-09 10:02 42.46262 -67.31223 37072 ft 539 kts 47°
2026-05-09 10:02 42.50765 -67.23020 37070 ft 539 kts 48°
2026-05-09 10:03 42.55196 -67.14925 37072 ft 538 kts 48°
2026-05-09 10:03 42.59645 -67.06776 37072 ft 537 kts 48°
2026-05-09 10:04 42.64041 -66.98598 37068 ft 537 kts 52°
2026-05-09 10:04 42.68253 -66.90225 37073 ft 536 kts 50°
2026-05-09 10:05 42.72470 -66.81835 37063 ft 538 kts 51°
2026-05-09 10:05 42.76666 -66.73427 37066 ft 537 kts 51°
2026-05-09 10:06 42.80873 -66.65014 37060 ft 538 kts 51°
2026-05-09 10:06 42.85068 -66.56566 37065 ft 538 kts 51°
2026-05-09 10:07 42.89263 -66.48122 37066 ft 537 kts 52°
2026-05-09 10:07 42.93442 -66.39666 37064 ft 538 kts 52°
2026-05-09 10:08 42.97617 -66.31206 37062 ft 537 kts 52°
2026-05-09 10:08 43.01778 -66.22745 37067 ft 536 kts 52°
2026-05-09 10:09 43.05933 -66.14274 37060 ft 536 kts 52°
2026-05-09 10:09 43.10084 -66.05788 37055 ft 536 kts 52°
2026-05-09 10:10 43.14218 -65.97309 37058 ft 535 kts 53°
2026-05-09 10:10 43.18353 -65.88808 37062 ft 536 kts 53°
2026-05-09 10:11 43.22455 -65.80347 37057 ft 537 kts 53°
2026-05-09 10:11 43.26582 -65.71812 37057 ft 537 kts 53°
2026-05-09 10:12 43.30704 -65.63260 37053 ft 537 kts 53°
2026-05-09 10:12 43.34823 -65.54693 37056 ft 537 kts 53°
2026-05-09 10:13 43.38931 -65.46121 37053 ft 537 kts 54°
2026-05-09 10:13 43.43037 -65.37529 37053 ft 538 kts 54°
2026-05-09 10:14 43.47142 -65.28913 37048 ft 538 kts 54°
2026-05-09 10:14 43.51238 -65.20292 37051 ft 538 kts 54°
2026-05-09 10:15 43.55329 -65.11657 37048 ft 538 kts 54°
2026-05-09 10:15 43.59412 -65.03012 37050 ft 538 kts 55°
2026-05-09 10:16 43.63488 -64.94357 37047 ft 538 kts 55°
2026-05-09 10:16 43.67560 -64.85684 37043 ft 539 kts 55°
2026-05-09 10:17 43.71635 -64.76980 37042 ft 539 kts 56°
2026-05-09 10:17 43.75700 -64.68270 37040 ft 540 kts 56°
2026-05-09 10:18 43.79760 -64.59545 37040 ft 540 kts 56°
2026-05-09 10:18 43.83820 -64.50794 37042 ft 540 kts 56°
2026-05-09 10:19 43.87869 -64.42041 37042 ft 539 kts 56°
2026-05-09 10:19 43.91912 -64.33272 37037 ft 540 kts 56°
2026-05-09 10:20 43.95945 -64.24502 37032 ft 539 kts 57°
2026-05-09 10:20 43.99975 -64.15710 37034 ft 540 kts 57°
2026-05-09 10:21 44.03995 -64.06913 37029 ft 539 kts 57°
2026-05-09 10:21 44.08014 -63.98091 37023 ft 540 kts 57°
2026-05-09 10:22 44.12028 -63.89256 37026 ft 540 kts 57°
2026-05-09 10:22 44.16035 -63.80407 37028 ft 541 kts 58°
2026-05-09 10:23 44.20013 -63.71596 37022 ft 540 kts 58°
2026-05-09 10:23 44.24007 -63.62721 37024 ft 541 kts 58°
2026-05-09 10:24 44.27995 -63.53833 37010 ft 541 kts 58°
2026-05-09 10:24 44.31982 -63.44920 37014 ft 541 kts 58°
2026-05-09 10:25 44.35959 -63.36002 37015 ft 541 kts 58°
2026-05-09 10:25 44.39939 -63.27048 37019 ft 542 kts 59°
2026-05-09 10:26 44.43910 -63.18087 37012 ft 542 kts 59°
2026-05-09 10:26 44.47876 -63.09109 37011 ft 542 kts 59°
2026-05-09 10:27 44.51831 -63.00129 37016 ft 541 kts 59°
2026-05-09 10:27 44.55785 -62.91122 37017 ft 543 kts 59°
2026-05-09 10:28 44.59731 -62.82106 37013 ft 542 kts 59°
2026-05-09 10:28 44.63672 -62.73070 37010 ft 543 kts 60°
2026-05-09 10:29 44.67608 -62.64022 37020 ft 542 kts 60°
2026-05-09 10:29 44.71535 -62.54959 37017 ft 543 kts 60°
2026-05-09 10:30 44.75460 -62.45879 37011 ft 542 kts 60°
2026-05-09 10:30 44.77413 -62.41343 37208 ft 542 kts 58°
2026-05-09 10:30 44.79330 -62.36883 37061 ft 535 kts 58°
2026-05-09 10:31 44.83140 -62.28023 37015 ft 526 kts 58°
2026-05-09 10:31 44.86937 -62.19146 37022 ft 531 kts 58°
2026-05-09 10:32 44.90749 -62.10216 37027 ft 532 kts 58°
2026-05-09 10:32 44.94556 -62.01263 37025 ft 532 kts 59°
2026-05-09 10:33 44.98358 -61.92299 37025 ft 532 kts 59°
2026-05-09 10:33 45.02149 -61.83327 37017 ft 532 kts 59°
2026-05-09 10:34 45.05933 -61.74346 37020 ft 532 kts 59°
2026-05-09 10:34 45.11602 -61.60839 37017 ft 532 kts 59°
2026-05-09 10:35 45.15371 -61.51821 37014 ft 532 kts 59°
2026-05-09 10:35 45.19130 -61.42799 37012 ft 531 kts 59°
2026-05-09 10:36 45.22877 -61.33775 37009 ft 531 kts 60°
2026-05-09 10:36 45.26621 -61.24731 37004 ft 531 kts 60°
2026-05-09 10:37 45.30360 -61.15671 37001 ft 531 kts 60°
2026-05-09 10:37 45.34089 -61.06604 36985 ft 531 kts 60°
2026-05-09 10:38 45.37806 -60.97537 36974 ft 531 kts 60°
2026-05-09 10:38 45.41521 -60.88446 36972 ft 531 kts 60°
2026-05-09 10:39 45.45225 -60.79354 36971 ft 531 kts 60°
2026-05-09 10:39 45.48922 -60.70245 36971 ft 531 kts 61°
2026-05-09 10:40 45.51991 -60.62665 36968 ft 531 kts 61°
2026-05-09 10:40 45.56275 -60.52046 36967 ft 531 kts 61°
2026-05-09 10:41 45.59355 -60.44385 36966 ft 531 kts 61°
2026-05-09 10:41 45.63027 -60.35227 36964 ft 531 kts 61°
2026-05-09 10:42 45.66693 -60.26051 36959 ft 532 kts 62°
2026-05-09 10:42 45.70948 -60.15366 36960 ft 532 kts 62°
2026-05-09 10:43 45.73983 -60.07717 36962 ft 532 kts 62°
2026-05-09 10:43 45.77631 -59.98495 36960 ft 532 kts 62°
2026-05-09 10:44 45.81274 -59.89255 36958 ft 532 kts 62°
2026-05-09 10:44 45.84909 -59.80006 36962 ft 533 kts 62°
2026-05-09 10:46 45.93970 -59.56812 36953 ft 533 kts 63°
2026-05-09 10:46 45.97583 -59.47509 36957 ft 532 kts 63°
2026-05-09 10:47 46.01184 -59.38205 36959 ft 533 kts 63°
2026-05-09 10:47 46.04781 -59.28881 36961 ft 533 kts 63°
2026-05-09 10:48 46.08368 -59.19547 36958 ft 533 kts 63°
2026-05-09 10:48 46.11946 -59.10208 36961 ft 532 kts 63°
2026-05-09 10:49 46.15517 -59.00856 36959 ft 532 kts 63°
2026-05-09 10:49 46.19055 -58.91556 36960 ft 532 kts 64°
2026-05-09 10:50 46.22608 -58.82187 36961 ft 532 kts 64°
2026-05-09 10:50 46.26160 -58.72787 36957 ft 533 kts 64°
2026-05-09 10:51 46.29702 -58.63380 36957 ft 532 kts 64°
2026-05-09 10:51 46.33232 -58.53974 36951 ft 532 kts 64°
2026-05-09 10:52 46.36759 -58.44542 36967 ft 533 kts 64°
2026-05-09 10:52 46.40282 -58.35087 36958 ft 533 kts 64°
2026-05-09 10:53 46.43798 -58.25618 36952 ft 533 kts 65°
2026-05-09 10:53 46.47306 -58.16141 36944 ft 533 kts 65°
2026-05-09 10:54 46.50805 -58.06651 36942 ft 533 kts 65°
2026-05-09 10:54 46.54297 -57.97145 36942 ft 534 kts 65°
2026-05-09 10:55 46.57784 -57.87621 36939 ft 534 kts 65°
2026-05-09 10:55 46.61265 -57.78082 36934 ft 534 kts 65°
2026-05-09 10:56 46.64739 -57.68525 36933 ft 534 kts 66°
2026-05-09 10:56 46.68205 -57.58956 36925 ft 534 kts 66°
2026-05-09 10:57 46.71663 -57.49376 36924 ft 535 kts 66°
2026-05-09 10:57 46.75120 -57.39764 36923 ft 536 kts 66°
2026-05-09 10:58 46.78575 -57.30120 36921 ft 536 kts 66°
2026-05-09 10:58 46.82024 -57.20463 36920 ft 536 kts 66°
2026-05-09 10:59 46.85464 -57.10793 36911 ft 536 kts 67°
2026-05-09 10:59 46.88892 -57.01121 36907 ft 535 kts 67°
2026-05-09 11:00 46.92308 -56.91450 36907 ft 535 kts 67°
2026-05-09 11:00 46.95715 -56.81768 36902 ft 535 kts 67°
2026-05-09 11:01 46.99112 -56.72076 36894 ft 535 kts 68°
2026-05-09 11:01 47.02476 -56.62445 36885 ft 535 kts 68°
2026-05-09 11:02 47.05859 -56.52724 36881 ft 535 kts 68°
2026-05-09 11:02 47.09228 -56.43009 36864 ft 534 kts 68°
2026-05-09 11:03 47.12589 -56.33278 36846 ft 534 kts 68°
2026-05-09 11:03 47.15942 -56.23536 36845 ft 535 kts 69°
2026-05-09 11:04 47.19292 -56.13765 36830 ft 535 kts 69°
2026-05-09 11:04 47.22634 -56.03981 36819 ft 535 kts 69°
2026-05-09 11:05 47.25967 -55.94189 36823 ft 535 kts 69°
2026-05-09 11:05 47.29289 -55.84390 36802 ft 534 kts 69°
2026-05-09 11:06 47.32597 -55.74593 36790 ft 534 kts 70°
2026-05-09 11:06 47.35903 -55.64771 36787 ft 535 kts 70°
2026-05-09 11:07 47.39198 -55.54941 36797 ft 534 kts 70°
2026-05-09 11:07 47.42479 -55.45115 36806 ft 534 kts 70°
2026-05-09 11:08 47.45758 -55.35255 36820 ft 534 kts 71°
2026-05-09 11:08 47.49029 -55.25385 36825 ft 535 kts 71°
2026-05-09 11:09 47.52293 -55.15499 36834 ft 535 kts 71°
2026-05-09 11:09 47.55550 -55.05594 36840 ft 535 kts 71°
2026-05-09 11:10 47.58796 -54.95686 36852 ft 535 kts 71°
2026-05-09 11:10 47.62030 -54.85777 36862 ft 534 kts 72°
2026-05-09 11:11 47.65251 -54.75867 36851 ft 533 kts 72°
2026-05-09 11:11 47.68441 -54.66016 36849 ft 533 kts 72°
2026-05-09 11:12 47.71645 -54.56080 36838 ft 534 kts 72°
2026-05-09 11:12 47.74842 -54.46131 36835 ft 534 kts 72°
2026-05-09 11:13 47.78031 -54.36164 36827 ft 533 kts 73°
2026-05-09 11:13 47.81209 -54.26198 36826 ft 533 kts 73°
2026-05-09 11:14 47.84373 -54.16231 36817 ft 532 kts 73°
2026-05-09 11:14 47.87527 -54.06257 36812 ft 533 kts 73°
2026-05-09 11:15 47.90677 -53.96260 36802 ft 533 kts 74°
2026-05-09 11:15 47.93816 -53.86253 36805 ft 533 kts 74°
2026-05-09 11:16 47.96944 -53.76241 36810 ft 532 kts 74°
2026-05-09 11:16 48.00059 -53.66235 36821 ft 532 kts 75°
2026-05-09 11:17 48.03169 -53.56201 36818 ft 533 kts 75°
2026-05-09 11:17 48.06254 -53.46214 36817 ft 532 kts 75°
2026-05-09 11:18 48.09368 -53.36086 36821 ft 533 kts 75°
2026-05-09 11:18 48.12456 -53.26007 36815 ft 533 kts 75°
2026-05-09 11:19 48.15512 -53.15988 36809 ft 532 kts 76°
2026-05-09 11:19 48.18579 -53.05893 36809 ft 532 kts 76°
2026-05-09 11:20 48.21638 -52.95784 36813 ft 532 kts 76°
2026-05-09 11:20 48.24679 -52.85690 36806 ft 531 kts 76°
2026-05-09 11:21 48.27710 -52.75589 36809 ft 531 kts 76°
2026-05-09 11:21 48.30734 -52.65473 36806 ft 531 kts 76°
2026-05-09 11:22 48.33747 -52.55348 36810 ft 531 kts 76°
2026-05-09 11:22 48.36755 -52.45201 36805 ft 531 kts 76°
2026-05-09 11:23 48.39750 -52.35058 36810 ft 530 kts 76°
2026-05-09 11:23 48.42733 -52.24908 36811 ft 530 kts 76°
2026-05-09 11:24 48.45706 -52.14751 36810 ft 530 kts 76°
2026-05-09 11:24 48.48653 -52.04643 36805 ft 530 kts 76°
2026-05-09 11:25 48.51443 -51.94410 36813 ft 526 kts 78°
2026-05-09 11:25 48.54144 -51.84127 36799 ft 527 kts 78°
2026-05-09 11:26 48.56799 -51.73815 36798 ft 527 kts 78°
2026-05-09 11:26 48.59462 -51.63502 36789 ft 527 kts 78°
2026-05-09 11:27 48.62107 -51.53184 36800 ft 527 kts 78°
2026-05-09 11:27 48.64749 -51.42835 36795 ft 528 kts 78°
2026-05-09 11:28 48.67381 -51.32486 36792 ft 527 kts 78°
2026-05-09 11:28 48.70000 -51.22128 36786 ft 527 kts 78°
2026-05-09 11:29 48.72610 -51.11769 36789 ft 526 kts 78°
2026-05-09 11:29 48.74768 -51.03159 36785 ft 526 kts 78°
2026-05-09 11:30 48.77359 -50.92792 36784 ft 526 kts 78°
2026-05-09 11:30 48.79935 -50.82425 36785 ft 525 kts 78°
2026-05-09 11:31 48.82502 -50.72051 36784 ft 525 kts 78°
2026-05-09 11:31 48.85057 -50.61677 36784 ft 525 kts 78°
2026-05-09 11:32 48.87602 -50.51293 36785 ft 524 kts 78°
2026-05-09 11:32 48.90136 -50.40912 36781 ft 523 kts 78°
2026-05-09 11:33 48.92652 -50.30552 36788 ft 522 kts 78°
2026-05-09 11:33 48.96404 -50.15009 36792 ft 521 kts 78°
2026-05-09 11:34 48.98889 -50.04653 36794 ft 520 kts 78°
2026-05-09 11:34 49.01467 -49.94332 36793 ft 521 kts 77°
2026-05-09 11:35 49.04014 -49.84000 36794 ft 521 kts 77°
2026-05-09 11:35 49.06625 -49.73693 36799 ft 521 kts 77°
2026-05-09 11:36 49.09184 -49.63369 36801 ft 520 kts 78°
2026-05-09 11:36 49.11750 -49.53059 36803 ft 520 kts 77°
2026-05-09 11:37 49.14296 -49.42742 36812 ft 519 kts 78°
2026-05-09 11:37 49.16837 -49.32408 36809 ft 520 kts 77°
2026-05-09 11:38 49.19373 -49.22046 36821 ft 520 kts 78°
2026-05-09 11:38 49.21898 -49.11680 36826 ft 520 kts 78°
2026-05-09 11:39 49.24416 -49.01294 36824 ft 520 kts 78°
2026-05-09 11:40 49.28172 -48.85709 36832 ft 520 kts 78°
2026-05-09 11:40 49.30666 -48.75301 36846 ft 520 kts 78°
2026-05-09 11:41 49.33133 -48.64955 36842 ft 520 kts 78°
2026-05-09 11:41 49.35604 -48.54541 36854 ft 520 kts 78°
2026-05-09 11:42 49.38065 -48.44121 36849 ft 520 kts 78°
2026-05-09 11:42 49.40517 -48.33691 36867 ft 519 kts 78°
2026-05-09 11:43 49.42957 -48.23257 36861 ft 519 kts 77°
2026-05-09 11:43 49.45387 -48.12823 36865 ft 519 kts 77°
2026-05-09 11:44 49.47810 -48.02362 36869 ft 519 kts 77°
2026-05-09 11:44 49.50221 -47.91905 36876 ft 519 kts 77°
2026-05-09 11:45 49.52618 -47.81457 36880 ft 516 kts 77°
2026-05-09 11:45 49.54996 -47.71034 36891 ft 516 kts 77°
2026-05-09 11:46 49.57368 -47.60598 36896 ft 516 kts 77°
2026-05-09 11:46 49.59727 -47.50160 36900 ft 516 kts 77°
2026-05-09 11:47 49.62080 -47.39699 36914 ft 516 kts 77°
2026-05-09 11:47 49.64419 -47.29247 36918 ft 516 kts 77°
2026-05-09 11:48 49.66747 -47.18794 36925 ft 515 kts 77°
2026-05-09 11:48 49.69066 -47.08326 36936 ft 514 kts 77°
2026-05-09 11:49 49.71369 -46.97882 36942 ft 513 kts 77°
2026-05-09 11:49 49.73659 -46.87441 36953 ft 513 kts 77°
2026-05-09 11:50 49.75936 -46.77010 36954 ft 511 kts 77°
2026-05-09 11:50 49.78200 -46.66583 36961 ft 510 kts 77°
2026-05-09 11:51 49.80448 -46.56176 36980 ft 510 kts 78°
2026-05-09 11:51 49.82684 -46.45779 36979 ft 508 kts 78°
2026-05-09 11:52 49.84905 -46.35391 36980 ft 508 kts 78°
2026-05-09 11:52 49.87118 -46.24992 36984 ft 508 kts 78°
2026-05-09 11:53 49.89319 -46.14594 36994 ft 508 kts 78°
2026-05-09 11:53 49.91512 -46.04181 37004 ft 508 kts 78°
2026-05-09 11:54 49.93684 -45.93813 37007 ft 509 kts 78°
2026-05-09 11:54 49.95860 -45.83377 37014 ft 507 kts 78°
2026-05-09 11:55 49.98021 -45.72950 37018 ft 507 kts 78°
2026-05-09 11:56 50.04454 -45.41604 37041 ft 507 kts 78°
2026-05-09 11:57 50.06582 -45.31116 37050 ft 508 kts 78°
2026-05-09 11:57 50.08705 -45.20608 37062 ft 509 kts 78°
2026-05-09 11:58 50.10818 -45.10086 37063 ft 509 kts 78°
2026-05-09 11:58 50.12921 -44.99565 37063 ft 508 kts 78°
2026-05-09 11:59 50.15009 -44.89053 37076 ft 508 kts 77°
2026-05-09 11:59 50.17087 -44.78540 37088 ft 507 kts 77°
2026-05-09 12:00 50.19152 -44.68034 37087 ft 507 kts 77°
2026-05-09 12:00 50.21207 -44.57520 37099 ft 506 kts 77°
2026-05-09 12:01 50.23249 -44.47019 37106 ft 505 kts 77°
2026-05-09 12:01 50.25268 -44.36574 37114 ft 506 kts 77°
2026-05-09 12:02 50.27290 -44.26060 37125 ft 506 kts 77°
2026-05-09 12:02 50.29305 -44.15526 37129 ft 506 kts 77°
2026-05-09 12:03 50.31311 -44.04978 37137 ft 506 kts 77°
2026-05-09 12:03 50.33305 -43.94432 37144 ft 506 kts 77°
2026-05-09 12:04 50.35292 -43.83865 37159 ft 506 kts 77°
2026-05-09 12:04 50.37273 -43.73270 37158 ft 507 kts 77°
2026-05-09 12:05 50.39242 -43.62678 37166 ft 507 kts 77°
2026-05-09 12:05 50.41203 -43.52067 37172 ft 507 kts 77°
2026-05-09 12:06 50.43154 -43.41453 37185 ft 507 kts 78°
2026-05-09 12:06 50.45096 -43.30824 37190 ft 507 kts 77°
2026-05-09 12:07 50.47030 -43.20180 37197 ft 507 kts 78°
2026-05-09 12:07 50.48940 -43.09601 37207 ft 507 kts 78°
2026-05-09 12:08 50.50854 -42.98943 37210 ft 507 kts 78°
2026-05-09 12:08 50.52756 -42.88285 37216 ft 506 kts 78°
2026-05-09 12:09 50.54649 -42.77621 37225 ft 506 kts 78°
2026-05-09 12:09 50.56528 -42.66964 37231 ft 506 kts 78°
2026-05-09 12:10 50.60260 -42.45615 37249 ft 506 kts 78°
2026-05-09 12:11 50.62110 -42.34936 37251 ft 506 kts 78°
2026-05-09 12:11 50.63950 -42.24251 37259 ft 505 kts 78°
2026-05-09 12:12 50.65779 -42.13558 37268 ft 505 kts 78°
2026-05-09 12:12 50.67596 -42.02878 37275 ft 504 kts 78°
2026-05-09 12:13 50.69402 -41.92192 37285 ft 504 kts 78°
2026-05-09 12:13 50.71197 -41.81511 37290 ft 503 kts 78°
2026-05-09 12:14 50.72978 -41.70840 37297 ft 503 kts 78°
2026-05-09 12:14 50.74751 -41.60154 37302 ft 503 kts 78°
2026-05-09 12:15 50.76512 -41.49475 37302 ft 502 kts 78°
2026-05-09 12:15 50.78250 -41.38863 37305 ft 502 kts 78°
2026-05-09 12:16 50.79988 -41.28187 37329 ft 502 kts 78°
2026-05-09 12:16 50.81717 -41.17501 37331 ft 501 kts 78°
2026-05-09 12:17 50.83434 -41.06821 37323 ft 501 kts 78°
2026-05-09 12:17 50.84864 -40.97866 37333 ft 501 kts 78°
2026-05-09 12:18 50.86553 -40.87240 37350 ft 501 kts 78°
2026-05-09 12:18 50.88244 -40.76524 37337 ft 501 kts 78°
2026-05-09 12:19 50.89925 -40.65806 37357 ft 501 kts 78°
2026-05-09 12:19 50.91592 -40.55093 37360 ft 501 kts 78°
2026-05-09 12:20 50.93251 -40.44380 37361 ft 501 kts 78°
2026-05-09 12:20 50.94902 -40.33637 37373 ft 501 kts 78°
2026-05-09 12:21 50.96542 -40.22897 37374 ft 501 kts 78°
2026-05-09 12:21 50.98172 -40.12149 37378 ft 501 kts 78°
2026-05-09 12:22 50.99790 -40.01412 37384 ft 500 kts 78°
2026-05-09 12:22 51.01364 -39.90647 37398 ft 499 kts 79°
2026-05-09 12:23 51.02904 -39.79894 37395 ft 500 kts 78°
2026-05-09 12:23 51.04451 -39.69134 37399 ft 499 kts 78°
2026-05-09 12:24 51.05974 -39.58387 37415 ft 499 kts 78°
2026-05-09 12:24 51.07494 -39.47630 37412 ft 498 kts 78°
2026-05-09 12:25 51.08998 -39.36887 37419 ft 498 kts 78°
2026-05-09 12:25 51.10494 -39.26133 37427 ft 498 kts 78°
2026-05-09 12:26 51.11977 -39.15389 37426 ft 497 kts 78°
2026-05-09 12:26 51.13452 -39.04635 37432 ft 496 kts 78°
2026-05-09 12:27 51.14914 -38.93888 37446 ft 496 kts 78°
2026-05-09 12:27 51.16363 -38.83159 37443 ft 495 kts 78°
2026-05-09 12:28 51.17802 -38.72427 37449 ft 495 kts 78°
2026-05-09 12:28 51.19229 -38.61697 37452 ft 494 kts 78°
2026-05-09 12:29 51.20646 -38.50972 37461 ft 494 kts 77°
2026-05-09 12:29 51.22050 -38.40260 37462 ft 494 kts 77°
2026-05-09 12:30 51.23435 -38.29612 37468 ft 493 kts 77°
2026-05-09 12:30 51.25504 -38.13564 37479 ft 492 kts 77°
2026-05-09 12:31 51.27543 -37.97548 37485 ft 490 kts 77°
2026-05-09 12:32 51.28889 -37.86873 37489 ft 489 kts 77°
2026-05-09 12:32 51.30223 -37.76225 37496 ft 489 kts 77°
2026-05-09 12:33 51.31544 -37.65579 37502 ft 488 kts 77°
2026-05-09 12:33 51.32855 -37.54951 37506 ft 487 kts 77°
2026-05-09 12:34 51.34151 -37.44338 37514 ft 485 kts 77°
2026-05-09 12:34 51.35437 -37.33732 37522 ft 485 kts 77°
2026-05-09 12:35 51.36709 -37.23153 37526 ft 484 kts 77°
2026-05-09 12:35 51.37971 -37.12593 37529 ft 483 kts 77°
2026-05-09 12:36 51.39218 -37.02038 37537 ft 482 kts 77°
2026-05-09 12:36 51.40458 -36.91484 37537 ft 481 kts 77°
2026-05-09 12:37 51.41686 -36.80941 37535 ft 482 kts 77°
2026-05-09 12:37 51.42903 -36.70395 37542 ft 481 kts 77°
2026-05-09 12:38 51.44103 -36.59927 37545 ft 480 kts 77°
2026-05-09 12:38 51.45304 -36.49344 37552 ft 479 kts 77°
2026-05-09 12:39 51.46480 -36.38901 37556 ft 478 kts 77°
2026-05-09 12:39 51.47652 -36.28404 37562 ft 478 kts 77°
2026-05-09 12:40 51.48814 -36.17915 37562 ft 477 kts 77°
2026-05-09 12:40 51.49964 -36.07433 37564 ft 477 kts 77°
2026-05-09 12:41 51.51106 -35.96944 37568 ft 476 kts 77°
2026-05-09 12:41 51.52236 -35.86470 37573 ft 476 kts 77°
2026-05-09 12:42 51.53357 -35.75984 37577 ft 477 kts 77°
2026-05-09 12:42 51.54471 -35.65476 37570 ft 477 kts 77°
2026-05-09 12:43 51.55574 -35.54969 37586 ft 476 kts 77°
2026-05-09 12:43 51.56667 -35.44475 37586 ft 476 kts 77°
2026-05-09 12:44 51.57747 -35.34000 37595 ft 475 kts 77°
2026-05-09 12:44 51.58817 -35.23537 37587 ft 474 kts 77°
2026-05-09 12:45 51.59878 -35.13066 37587 ft 474 kts 77°
2026-05-09 12:45 51.60925 -35.02623 37591 ft 472 kts 77°
2026-05-09 12:46 51.61963 -34.92193 37593 ft 472 kts 77°
2026-05-09 12:46 51.62990 -34.81761 37601 ft 472 kts 77°
2026-05-09 12:47 51.64006 -34.71341 37604 ft 471 kts 77°
2026-05-09 12:47 51.65008 -34.60976 37605 ft 471 kts 77°
2026-05-09 12:48 51.66005 -34.50556 37608 ft 471 kts 77°
2026-05-09 12:48 51.66992 -34.40146 37611 ft 470 kts 77°
2026-05-09 12:49 51.67969 -34.29741 37612 ft 470 kts 77°
2026-05-09 12:49 51.68937 -34.19320 37612 ft 470 kts 77°
2026-05-09 12:50 51.69894 -34.08916 37620 ft 469 kts 77°
2026-05-09 12:50 51.70841 -33.98525 37620 ft 468 kts 77°
2026-05-09 12:51 51.71777 -33.88145 37626 ft 468 kts 77°
2026-05-09 12:51 51.72703 -33.77769 37627 ft 467 kts 77°
2026-05-09 12:52 51.73619 -33.67394 37626 ft 467 kts 78°
2026-05-09 12:52 51.74527 -33.57012 37630 ft 467 kts 78°
2026-05-09 12:53 51.75424 -33.46634 37634 ft 466 kts 78°
2026-05-09 12:53 51.76311 -33.36278 37635 ft 466 kts 78°
2026-05-09 12:54 51.77182 -33.25985 37634 ft 466 kts 78°
2026-05-09 12:54 51.78050 -33.15621 37634 ft 465 kts 78°
2026-05-09 12:55 51.78907 -33.05286 37640 ft 464 kts 78°
2026-05-09 12:55 51.79751 -32.94978 37643 ft 462 kts 78°
2026-05-09 12:56 51.80584 -32.84707 37638 ft 461 kts 78°
2026-05-09 12:56 51.81407 -32.74437 37638 ft 461 kts 78°
2026-05-09 12:57 51.82220 -32.64177 37639 ft 460 kts 78°
2026-05-09 12:57 51.83025 -32.53916 37644 ft 460 kts 78°
2026-05-09 12:58 51.83819 -32.43653 37642 ft 460 kts 78°
2026-05-09 12:58 51.84605 -32.33396 37646 ft 460 kts 78°
2026-05-09 12:59 51.85380 -32.23139 37646 ft 459 kts 78°
2026-05-09 12:59 51.86147 -32.12885 37646 ft 459 kts 78°
2026-05-09 13:00 51.86903 -32.02656 37645 ft 458 kts 78°
2026-05-09 13:00 51.87650 -31.92421 37647 ft 458 kts 78°
2026-05-09 13:01 51.88384 -31.82243 37649 ft 458 kts 78°
2026-05-09 13:01 51.89117 -31.71934 37649 ft 458 kts 78°
2026-05-09 13:02 51.89838 -31.61692 37639 ft 458 kts 78°
2026-05-09 13:02 51.90543 -31.51534 37646 ft 457 kts 78°
2026-05-09 13:03 51.91243 -31.41318 37651 ft 456 kts 78°
2026-05-09 13:03 51.91933 -31.31121 37653 ft 455 kts 78°
2026-05-09 13:04 51.92613 -31.20929 37649 ft 455 kts 78°
2026-05-09 13:04 51.93283 -31.10758 37657 ft 454 kts 78°
2026-05-09 13:05 51.93833 -31.02314 37658 ft 453 kts 78°
2026-05-09 13:05 51.94485 -30.92159 37656 ft 452 kts 78°
2026-05-09 13:06 51.95128 -30.82025 37655 ft 451 kts 78°
2026-05-09 13:06 51.95760 -30.71918 37659 ft 450 kts 78°
2026-05-09 13:07 51.96382 -30.61824 37658 ft 450 kts 78°
2026-05-09 13:07 51.96995 -30.51737 37659 ft 449 kts 78°
2026-05-09 13:08 51.97599 -30.41653 37659 ft 449 kts 78°
2026-05-09 13:08 51.98196 -30.31548 37657 ft 450 kts 78°
2026-05-09 13:09 51.98782 -30.21453 37654 ft 449 kts 78°
2026-05-09 13:09 51.99360 -30.11369 37654 ft 449 kts 78°
2026-05-09 13:10 51.99929 -30.01282 37658 ft 449 kts 78°
2026-05-09 13:10 52.00362 -29.91155 37659 ft 450 kts 79°
2026-05-09 13:11 52.00798 -29.81029 37653 ft 450 kts 79°
2026-05-09 13:11 52.01196 -29.70900 37652 ft 449 kts 79°
2026-05-09 13:12 52.01602 -29.60784 37650 ft 449 kts 79°
2026-05-09 13:12 52.01989 -29.50675 37653 ft 448 kts 79°
2026-05-09 13:13 52.02373 -29.40582 37653 ft 448 kts 79°
2026-05-09 13:13 52.02744 -29.30502 37649 ft 447 kts 79°
2026-05-09 13:14 52.03109 -29.20426 37648 ft 447 kts 79°
2026-05-09 13:16 52.04473 -28.80214 37651 ft 445 kts 79°
2026-05-09 13:16 52.04792 -28.70182 37652 ft 445 kts 79°
2026-05-09 13:17 52.05100 -28.60224 37643 ft 444 kts 79°
2026-05-09 13:17 52.05402 -28.50207 37647 ft 444 kts 79°
2026-05-09 13:18 52.05695 -28.40196 37647 ft 443 kts 79°
2026-05-09 13:18 52.05979 -28.30195 37647 ft 443 kts 79°
2026-05-09 13:19 52.06254 -28.20199 37645 ft 443 kts 80°
2026-05-09 13:19 52.06521 -28.10211 37645 ft 442 kts 80°
2026-05-09 13:20 52.06779 -28.00228 37643 ft 442 kts 80°
2026-05-09 13:20 52.07028 -27.90247 37643 ft 442 kts 80°
2026-05-09 13:21 52.07269 -27.80275 37639 ft 441 kts 80°
2026-05-09 13:21 52.07501 -27.70306 37642 ft 441 kts 80°
2026-05-09 13:22 52.07725 -27.60352 37645 ft 441 kts 80°
2026-05-09 13:22 52.07941 -27.50393 37638 ft 441 kts 80°
2026-05-09 13:23 52.08442 -27.25512 37631 ft 440 kts 80°
2026-05-09 13:24 52.08627 -27.15586 37621 ft 439 kts 80°
2026-05-09 13:24 52.08804 -27.05670 37635 ft 438 kts 80°
2026-05-09 13:25 52.08972 -26.95777 37631 ft 438 kts 81°
2026-05-09 13:26 52.09207 -26.80997 37636 ft 437 kts 81°
2026-05-09 13:26 52.09356 -26.71037 37633 ft 437 kts 81°
2026-05-09 13:27 52.09494 -26.61213 37631 ft 437 kts 81°
2026-05-09 13:27 52.09625 -26.51337 37625 ft 437 kts 81°
2026-05-09 13:28 52.09747 -26.41461 37625 ft 437 kts 81°
2026-05-09 13:28 52.09861 -26.31581 37625 ft 437 kts 81°
2026-05-09 13:29 52.09967 -26.21704 37629 ft 437 kts 81°
2026-05-09 13:29 52.10065 -26.11816 37623 ft 437 kts 81°
2026-05-09 13:30 52.10154 -26.01929 37617 ft 437 kts 81°
2026-05-09 13:30 52.10235 -25.92044 37627 ft 437 kts 81°
2026-05-09 13:31 52.10308 -25.82172 37618 ft 437 kts 81°
2026-05-09 13:31 52.10373 -25.72291 37620 ft 437 kts 81°
2026-05-09 13:32 52.10429 -25.62422 37614 ft 436 kts 81°
2026-05-09 13:32 52.10497 -25.47676 37611 ft 436 kts 81°
2026-05-09 13:33 52.10533 -25.37822 37611 ft 436 kts 81°
2026-05-09 13:33 52.10561 -25.27953 37611 ft 436 kts 81°
2026-05-09 13:34 52.10580 -25.18084 37605 ft 436 kts 81°
2026-05-09 13:34 52.10591 -25.08227 37612 ft 436 kts 82°
2026-05-09 13:35 52.10593 -24.98379 37612 ft 435 kts 82°
2026-05-09 13:35 52.10588 -24.88562 37605 ft 435 kts 82°
2026-05-09 13:36 52.10575 -24.78715 37603 ft 436 kts 82°
2026-05-09 13:36 52.10553 -24.68850 37600 ft 436 kts 82°
2026-05-09 13:37 52.10522 -24.58962 37601 ft 436 kts 82°
2026-05-09 13:37 52.10484 -24.49089 37600 ft 436 kts 82°
2026-05-09 13:38 52.10438 -24.39212 37598 ft 437 kts 82°
2026-05-09 13:38 52.10382 -24.29326 37598 ft 437 kts 82°
2026-05-09 13:39 52.10319 -24.19451 37594 ft 437 kts 82°
2026-05-09 13:39 52.10248 -24.09566 37586 ft 437 kts 82°
2026-05-09 13:40 52.10168 -23.99673 37592 ft 437 kts 82°
2026-05-09 13:40 52.10080 -23.89789 37594 ft 437 kts 82°
2026-05-09 13:41 52.09984 -23.79974 37583 ft 437 kts 82°
2026-05-09 13:41 52.09880 -23.70096 37582 ft 437 kts 82°
2026-05-09 13:42 52.09767 -23.60215 37582 ft 437 kts 82°
2026-05-09 13:42 52.09646 -23.50346 37579 ft 436 kts 82°
2026-05-09 13:43 52.09517 -23.40486 37579 ft 437 kts 83°
2026-05-09 13:43 52.09379 -23.30606 37577 ft 437 kts 83°
2026-05-09 13:44 52.09234 -23.20737 37576 ft 437 kts 83°
2026-05-09 13:44 52.09080 -23.10856 37572 ft 437 kts 83°
2026-05-09 13:45 52.08918 -23.00974 37573 ft 438 kts 83°
2026-05-09 13:45 52.08748 -22.91099 37575 ft 438 kts 83°
2026-05-09 13:46 52.08568 -22.81186 37565 ft 439 kts 83°
2026-05-09 13:46 52.08380 -22.71260 37566 ft 440 kts 83°
2026-05-09 13:47 52.08183 -22.61315 37563 ft 440 kts 83°
2026-05-09 13:47 52.07979 -22.51419 37557 ft 441 kts 83°
2026-05-09 13:48 52.07765 -22.41467 37558 ft 441 kts 83°
2026-05-09 13:48 52.07543 -22.31520 37558 ft 440 kts 83°
2026-05-09 13:49 52.07313 -22.21558 37555 ft 441 kts 84°
2026-05-09 13:49 52.07073 -22.11590 37556 ft 442 kts 84°
2026-05-09 13:50 52.06825 -22.01603 37542 ft 442 kts 84°
2026-05-09 13:50 52.06568 -21.91613 37541 ft 442 kts 84°
2026-05-09 13:51 52.06303 -21.81624 37548 ft 443 kts 84°
2026-05-09 13:51 52.06076 -21.73297 37541 ft 444 kts 84°
2026-05-09 13:52 52.05747 -21.61633 37538 ft 445 kts 84°
2026-05-09 13:52 52.05454 -21.51572 37541 ft 446 kts 84°
2026-05-09 13:53 52.05153 -21.41498 37537 ft 447 kts 84°
2026-05-09 13:53 52.04841 -21.31398 37538 ft 447 kts 85°
2026-05-09 13:54 52.04574 -21.22932 37536 ft 448 kts 85°
2026-05-09 13:54 52.04247 -21.12834 37534 ft 448 kts 85°
2026-05-09 13:55 52.03911 -21.02723 37532 ft 449 kts 85°
2026-05-09 13:55 52.03565 -20.92590 37525 ft 449 kts 85°
2026-05-09 13:56 52.03213 -20.82538 37522 ft 449 kts 85°
2026-05-09 13:56 52.02850 -20.72404 37524 ft 450 kts 85°
2026-05-09 13:57 52.02477 -20.62246 37519 ft 451 kts 85°
2026-05-09 13:57 52.02095 -20.52073 37522 ft 451 kts 86°
2026-05-09 13:58 52.01704 -20.41909 37517 ft 451 kts 86°
2026-05-09 13:58 52.01305 -20.31748 37513 ft 451 kts 86°
2026-05-09 13:59 52.00897 -20.21560 37505 ft 453 kts 86°
2026-05-09 13:59 52.00477 -20.11353 37504 ft 453 kts 86°
2026-05-09 14:00 52.00118 -20.02857 37504 ft 456 kts 88°
2026-05-09 14:00 51.99312 -19.96073 37806 ft 468 kts 99°
2026-05-09 14:00 51.98410 -19.90918 38021 ft 470 kts 98°
2026-05-09 14:01 51.97528 -19.85886 38295 ft 471 kts 99°
2026-05-09 14:01 51.96626 -19.80781 38555 ft 472 kts 99°
2026-05-09 14:01 51.95718 -19.75664 38816 ft 473 kts 99°
2026-05-09 14:01 51.94809 -19.70533 39081 ft 473 kts 99°
2026-05-09 14:02 51.93898 -19.65403 39303 ft 474 kts 100°
2026-05-09 14:02 51.92984 -19.60284 39512 ft 474 kts 100°
2026-05-09 14:02 51.92062 -19.55130 39719 ft 475 kts 100°
2026-05-09 14:02 51.91142 -19.50001 39935 ft 475 kts 101°
2026-05-09 14:03 51.90216 -19.44854 40139 ft 476 kts 101°
2026-05-09 14:03 51.89289 -19.39716 40351 ft 476 kts 101°
2026-05-09 14:03 51.88358 -19.34571 40566 ft 476 kts 101°
2026-05-09 14:03 51.87424 -19.29422 40757 ft 477 kts 101°
2026-05-09 14:04 51.86488 -19.24278 40959 ft 477 kts 102°
2026-05-09 14:04 51.85547 -19.19121 41152 ft 478 kts 102°
2026-05-09 14:04 51.84604 -19.13968 41346 ft 478 kts 102°
2026-05-09 14:04 51.83657 -19.08808 41468 ft 481 kts 102°
2026-05-09 14:05 51.81745 -18.98434 41448 ft 477 kts 102°
2026-05-09 14:05 51.79858 -18.88254 41442 ft 469 kts 102°
2026-05-09 14:06 51.77978 -18.78153 41446 ft 471 kts 103°
2026-05-09 14:06 51.76072 -18.67982 41440 ft 474 kts 103°
2026-05-09 14:07 51.74154 -18.57798 41441 ft 475 kts 103°
2026-05-09 14:07 51.72226 -18.47616 41441 ft 475 kts 103°
2026-05-09 14:08 51.70287 -18.37434 41444 ft 475 kts 103°
2026-05-09 14:08 51.68341 -18.27267 41443 ft 475 kts 103°
2026-05-09 14:09 51.66386 -18.17108 41441 ft 475 kts 103°
2026-05-09 14:09 51.64420 -18.06952 41432 ft 476 kts 103°
2026-05-09 14:10 51.61466 -17.91779 41430 ft 476 kts 103°
2026-05-09 14:11 51.59478 -17.81641 41426 ft 475 kts 103°
2026-05-09 14:11 51.57483 -17.71523 41423 ft 474 kts 104°
2026-05-09 14:12 51.55482 -17.61427 41421 ft 474 kts 104°
2026-05-09 14:12 51.53474 -17.51337 41413 ft 475 kts 104°
2026-05-09 14:13 51.51452 -17.41241 41404 ft 475 kts 104°
2026-05-09 14:15 51.43284 -17.00954 41400 ft 475 kts 104°
2026-05-09 14:15 51.41218 -16.90898 41391 ft 475 kts 104°
2026-05-09 14:16 51.39144 -16.80844 41385 ft 475 kts 105°
2026-05-09 14:16 51.37057 -16.70795 41379 ft 476 kts 104°
2026-05-09 14:17 51.34965 -16.60766 41380 ft 475 kts 105°
2026-05-09 14:17 51.32865 -16.50736 41374 ft 476 kts 105°
2026-05-09 14:18 51.30756 -16.40717 41376 ft 475 kts 105°
2026-05-09 14:18 51.28639 -16.30721 41366 ft 475 kts 105°
2026-05-09 14:19 51.26514 -16.20738 41359 ft 475 kts 105°
2026-05-09 14:19 51.24400 -16.10836 41357 ft 475 kts 105°
2026-05-09 14:20 51.22256 -16.00861 41353 ft 476 kts 105°
2026-05-09 14:20 51.20100 -15.90867 41353 ft 477 kts 105°
2026-05-09 14:21 51.16845 -15.75880 41344 ft 477 kts 106°
2026-05-09 14:21 51.14660 -15.65881 41337 ft 478 kts 106°
2026-05-09 14:22 51.12466 -15.55886 41335 ft 478 kts 106°
2026-05-09 14:22 51.10258 -15.45881 41332 ft 479 kts 107°
2026-05-09 14:23 51.08042 -15.35883 41325 ft 479 kts 107°
2026-05-09 14:23 51.05817 -15.25891 41321 ft 480 kts 107°
2026-05-09 14:24 51.03573 -15.15872 41312 ft 482 kts 107°
2026-05-09 14:24 51.01322 -15.05850 41311 ft 482 kts 107°
2026-05-09 14:25 51.00030 -14.95539 41330 ft 476 kts 87°
2026-05-09 14:25 51.00046 -14.85022 41306 ft 476 kts 87°
2026-05-09 14:26 51.00088 -14.74511 41298 ft 476 kts 88°
2026-05-09 14:26 51.00096 -14.63998 41302 ft 477 kts 88°
2026-05-09 14:27 51.00109 -14.53480 41297 ft 476 kts 88°
2026-05-09 14:27 51.00105 -14.42955 41286 ft 476 kts 88°
2026-05-09 14:28 51.00095 -14.32441 41282 ft 476 kts 88°
2026-05-09 14:28 51.00074 -14.21929 41286 ft 476 kts 88°
2026-05-09 14:29 51.00044 -14.11416 41278 ft 476 kts 88°
2026-05-09 14:29 50.99711 -14.00932 41300 ft 478 kts 101°
2026-05-09 14:30 50.98757 -13.95881 41300 ft 483 kts 112°
2026-05-09 14:30 50.97360 -13.91028 41271 ft 485 kts 113°
2026-05-09 14:30 50.94483 -13.81360 41267 ft 484 kts 114°
2026-05-09 14:31 50.91614 -13.71702 41258 ft 484 kts 113°
2026-05-09 14:31 50.88736 -13.62070 41255 ft 483 kts 114°
2026-05-09 14:32 50.85856 -13.52469 41254 ft 483 kts 114°
2026-05-09 14:32 50.82966 -13.42870 41251 ft 483 kts 114°
2026-05-09 14:33 50.80068 -13.33282 41240 ft 483 kts 114°
2026-05-09 14:33 50.77186 -13.23787 41234 ft 483 kts 114°
2026-05-09 14:34 50.74276 -13.14236 41229 ft 483 kts 114°
2026-05-09 14:34 50.71355 -13.04683 41225 ft 484 kts 114°
2026-05-09 14:35 50.68421 -12.95131 41219 ft 484 kts 114°
2026-05-09 14:35 50.65484 -12.85606 41221 ft 484 kts 115°
2026-05-09 14:36 50.62533 -12.76069 41214 ft 485 kts 115°
2026-05-09 14:36 50.59573 -12.66540 41206 ft 484 kts 115°
2026-05-09 14:37 50.56603 -12.57019 41202 ft 484 kts 115°
2026-05-09 14:37 50.53649 -12.47586 41180 ft 484 kts 115°
2026-05-09 14:38 50.50669 -12.38102 41174 ft 484 kts 115°
2026-05-09 14:38 50.47676 -12.28616 41169 ft 484 kts 115°
2026-05-09 14:39 50.44681 -12.19161 41162 ft 484 kts 115°
2026-05-09 14:39 50.42162 -12.11235 41154 ft 484 kts 115°
2026-05-09 14:40 50.39171 -12.01855 41151 ft 485 kts 115°
2026-05-09 14:40 50.36121 -11.92330 41147 ft 487 kts 116°
2026-05-09 14:41 50.33097 -11.82922 41144 ft 487 kts 116°
2026-05-09 14:41 50.30045 -11.73462 41140 ft 486 kts 116°
2026-05-09 14:42 50.26995 -11.64040 41137 ft 485 kts 116°
2026-05-09 14:42 50.23936 -11.54632 41129 ft 486 kts 116°
2026-05-09 14:43 50.20865 -11.45219 41127 ft 487 kts 116°
2026-05-09 14:43 50.17786 -11.35817 41126 ft 486 kts 117°
2026-05-09 14:44 50.14702 -11.26437 41124 ft 485 kts 117°
2026-05-09 14:44 50.11618 -11.17089 41119 ft 484 kts 117°
2026-05-09 14:45 50.08533 -11.07777 41117 ft 483 kts 117°
2026-05-09 14:45 50.05446 -10.98491 41111 ft 483 kts 117°
2026-05-09 14:46 50.02357 -10.89233 41108 ft 482 kts 118°
2026-05-09 14:46 49.99264 -10.79996 41103 ft 481 kts 118°
2026-05-09 14:47 49.96168 -10.70783 41101 ft 481 kts 118°
2026-05-09 14:47 49.93063 -10.61580 41093 ft 481 kts 118°
2026-05-09 14:48 49.89951 -10.52387 41092 ft 481 kts 118°
2026-05-09 14:48 49.86858 -10.43285 41086 ft 480 kts 118°
2026-05-09 14:49 49.83737 -10.34133 41080 ft 480 kts 118°
2026-05-09 14:49 49.80613 -10.25002 41076 ft 479 kts 118°
2026-05-09 14:50 49.77483 -10.15890 41071 ft 479 kts 119°
2026-05-09 14:50 49.74347 -10.06790 41068 ft 479 kts 119°
2026-05-09 14:51 49.71203 -9.97704 41059 ft 479 kts 119°
2026-05-09 14:51 49.68054 -9.88631 41057 ft 479 kts 119°
2026-05-09 14:52 49.64899 -9.79574 41048 ft 479 kts 119°
2026-05-09 14:52 49.61735 -9.70525 41048 ft 480 kts 119°
2026-05-09 14:53 49.58560 -9.61475 41041 ft 480 kts 119°
2026-05-09 14:53 49.55373 -9.52424 41040 ft 481 kts 119°
2026-05-09 14:54 49.52172 -9.43362 41030 ft 482 kts 120°
2026-05-09 14:54 49.48965 -9.34317 41025 ft 481 kts 120°
2026-05-09 14:55 49.45759 -9.25308 41018 ft 480 kts 120°
2026-05-09 14:55 49.42541 -9.16296 41019 ft 482 kts 120°
2026-05-09 14:56 49.39309 -9.07272 41016 ft 482 kts 120°
2026-05-09 14:56 49.36086 -8.98312 41016 ft 483 kts 120°
2026-05-09 14:57 49.32813 -8.89239 41014 ft 483 kts 120°
2026-05-09 14:57 49.29574 -8.80293 41011 ft 484 kts 120°
2026-05-09 14:58 49.26302 -8.71287 41002 ft 484 kts 120°
2026-05-09 14:58 49.23021 -8.62289 40996 ft 484 kts 120°
2026-05-09 14:59 49.19738 -8.53313 40996 ft 483 kts 121°
2026-05-09 14:59 49.16449 -8.44352 40989 ft 483 kts 121°
2026-05-09 15:00 49.13159 -8.35422 40985 ft 482 kts 121°
2026-05-09 15:00 49.09864 -8.26506 40987 ft 483 kts 121°
2026-05-09 15:01 49.04923 -8.13194 40979 ft 480 kts 122°
2026-05-09 15:02 49.01681 -8.04310 40999 ft 480 kts 114°
2026-05-09 15:02 49.00594 -7.99499 41006 ft 484 kts 103°
2026-05-09 15:02 49.00115 -7.94416 41014 ft 488 kts 92°
2026-05-09 15:03 49.00176 -7.84055 40996 ft 490 kts 91°
2026-05-09 15:03 49.00308 -7.73694 40996 ft 489 kts 91°
2026-05-09 15:04 49.00396 -7.63341 40985 ft 489 kts 91°
2026-05-09 15:06 48.94366 -7.23911 40992 ft 482 kts 112°
2026-05-09 15:06 48.92070 -7.14323 40989 ft 482 kts 112°
2026-05-09 15:07 48.89779 -7.04798 40989 ft 483 kts 112°
2026-05-09 15:07 48.87463 -6.95210 40987 ft 483 kts 112°
2026-05-09 15:08 48.85138 -6.85627 40981 ft 483 kts 112°
2026-05-09 15:08 48.81636 -6.71267 40980 ft 483 kts 112°
2026-05-09 15:10 48.72245 -6.33224 40966 ft 482 kts 113°
2026-05-09 15:11 48.69875 -6.23725 40963 ft 482 kts 113°
2026-05-09 15:11 48.67500 -6.14247 40961 ft 482 kts 113°
2026-05-09 15:12 48.65122 -6.04788 40962 ft 481 kts 113°
2026-05-09 15:12 48.62734 -5.95349 40958 ft 480 kts 113°
2026-05-09 15:13 48.60349 -5.85937 40955 ft 479 kts 113°
2026-05-09 15:13 48.57955 -5.76546 40958 ft 479 kts 113°
2026-05-09 15:14 48.55573 -5.67230 40954 ft 479 kts 113°
2026-05-09 15:14 48.53165 -5.57857 40946 ft 479 kts 114°
2026-05-09 15:15 48.51143 -5.50012 40950 ft 479 kts 114°
2026-05-09 15:15 48.48323 -5.39119 40949 ft 479 kts 114°
2026-05-09 15:16 48.45893 -5.29776 40945 ft 478 kts 114°
2026-05-09 15:16 48.43465 -5.20477 40942 ft 476 kts 114°
2026-05-09 15:17 48.41038 -5.11216 40945 ft 475 kts 114°
2026-05-09 15:17 48.38599 -5.01952 40940 ft 477 kts 114°
2026-05-09 15:18 48.36148 -4.92677 40939 ft 478 kts 114°
2026-05-09 15:18 48.33688 -4.83401 40935 ft 478 kts 114°
2026-05-09 15:19 48.31220 -4.74139 40934 ft 476 kts 114°
2026-05-09 15:19 48.28771 -4.64979 40929 ft 475 kts 115°
2026-05-09 15:20 48.25067 -4.51199 40936 ft 475 kts 115°
2026-05-09 15:21 48.22590 -4.42023 40933 ft 474 kts 115°
2026-05-09 15:21 48.20113 -4.32887 40930 ft 473 kts 115°
2026-05-09 15:22 48.17631 -4.23771 40927 ft 472 kts 115°
2026-05-09 15:22 48.15141 -4.14657 40907 ft 473 kts 115°
2026-05-09 15:23 48.12643 -4.05551 40906 ft 473 kts 115°
2026-05-09 15:23 48.10137 -3.96449 40909 ft 473 kts 115°
2026-05-09 15:24 48.07628 -3.87370 40908 ft 471 kts 115°
2026-05-09 15:24 48.05120 -3.78331 40907 ft 471 kts 115°
2026-05-09 15:25 48.02603 -3.69294 40909 ft 471 kts 115°
2026-05-09 15:25 48.00079 -3.60265 40919 ft 470 kts 115°
2026-05-09 15:26 47.96292 -3.46784 40923 ft 469 kts 116°
2026-05-09 15:26 47.93775 -3.37865 40926 ft 471 kts 116°
2026-05-09 15:27 47.91221 -3.28849 40926 ft 472 kts 116°
2026-05-09 15:27 47.88662 -3.19849 40921 ft 471 kts 116°
2026-05-09 15:28 47.86534 -3.12389 40932 ft 470 kts 116°
2026-05-09 15:28 47.83538 -3.01927 40911 ft 470 kts 116°
2026-05-09 15:29 47.81405 -2.94503 40911 ft 470 kts 116°
2026-05-09 15:29 47.78828 -2.85570 40909 ft 470 kts 116°
2026-05-09 15:30 47.76240 -2.76629 40909 ft 471 kts 116°
2026-05-09 15:30 47.73643 -2.67688 40909 ft 472 kts 116°
2026-05-09 15:31 47.71034 -2.58743 40906 ft 472 kts 116°
2026-05-09 15:31 47.68348 -2.49875 40917 ft 468 kts 124°
2026-05-09 15:32 47.64786 -2.41826 40918 ft 467 kts 127°
2026-05-09 15:32 47.61161 -2.33846 40917 ft 467 kts 127°
2026-05-09 15:33 47.57542 -2.25849 40918 ft 467 kts 127°
2026-05-09 15:33 47.53915 -2.17887 40910 ft 467 kts 127°
2026-05-09 15:34 47.50283 -2.09922 40910 ft 467 kts 127°
2026-05-09 15:34 47.46637 -2.01956 40906 ft 468 kts 127°
2026-05-09 15:35 47.42988 -1.94003 40902 ft 468 kts 127°
2026-05-09 15:35 47.39333 -1.86064 40896 ft 467 kts 127°
2026-05-09 15:36 47.35679 -1.78146 40904 ft 466 kts 127°
2026-05-09 15:36 47.32019 -1.70240 40897 ft 467 kts 127°
2026-05-09 15:37 47.28350 -1.62336 40902 ft 467 kts 127°
2026-05-09 15:37 47.24673 -1.54440 40904 ft 468 kts 127°
2026-05-09 15:38 47.20995 -1.46561 40900 ft 467 kts 128°
2026-05-09 15:38 47.17311 -1.38694 40896 ft 467 kts 128°
2026-05-09 15:39 47.13628 -1.30852 40896 ft 467 kts 128°
2026-05-09 15:39 47.09935 -1.23010 40885 ft 467 kts 128°
2026-05-09 15:40 47.06231 -1.15166 40884 ft 468 kts 128°
2026-05-09 15:40 47.02516 -1.07321 40886 ft 468 kts 128°
2026-05-09 15:41 46.98796 -0.99488 40890 ft 468 kts 128°
2026-05-09 15:41 46.95070 -0.91667 40885 ft 468 kts 128°
2026-05-09 15:42 46.91366 -0.83911 40888 ft 468 kts 128°
2026-05-09 15:42 46.87606 -0.76061 40889 ft 468 kts 128°
2026-05-09 15:43 46.83888 -0.68321 40884 ft 469 kts 128°
2026-05-09 15:43 46.80138 -0.60534 40883 ft 469 kts 128°
2026-05-09 15:44 46.76382 -0.52758 40883 ft 469 kts 129°
2026-05-09 15:44 46.72621 -0.44993 40884 ft 469 kts 129°
2026-05-09 15:45 46.68858 -0.37246 40884 ft 468 kts 129°
2026-05-09 15:45 46.65094 -0.29519 40880 ft 468 kts 129°
2026-05-09 15:46 46.61533 -0.21591 40895 ft 470 kts 123°
2026-05-09 15:46 46.58231 -0.13382 40897 ft 471 kts 124°
2026-05-09 15:47 46.54922 -0.05145 40906 ft 472 kts 124°
2026-05-09 15:47 46.51607 0.03075 40906 ft 471 kts 124°
2026-05-09 15:48 46.48286 0.11282 40905 ft 471 kts 124°
2026-05-09 15:48 46.44969 0.19461 40901 ft 470 kts 124°
2026-05-09 15:49 46.41642 0.27632 40904 ft 471 kts 124°
2026-05-09 15:49 46.38312 0.35795 40903 ft 470 kts 124°
2026-05-09 15:50 46.34971 0.43954 40894 ft 472 kts 124°
2026-05-09 15:50 46.31621 0.52115 40893 ft 472 kts 124°
2026-05-09 15:51 46.28255 0.60288 40894 ft 473 kts 124°
2026-05-09 15:51 46.24883 0.68453 40909 ft 473 kts 124°
2026-05-09 15:52 46.19807 0.80697 40912 ft 474 kts 125°
2026-05-09 15:53 46.16415 0.88852 40901 ft 474 kts 125°
2026-05-09 15:53 46.13035 0.96949 40912 ft 474 kts 125°
2026-05-09 15:54 46.09633 1.05078 40919 ft 474 kts 125°
2026-05-09 15:54 46.06216 1.13218 40921 ft 475 kts 125°
2026-05-09 15:55 46.02799 1.21336 40921 ft 474 kts 125°
2026-05-09 15:55 45.99373 1.29451 40928 ft 475 kts 125°
2026-05-09 15:56 45.96270 1.37844 40958 ft 481 kts 112°
2026-05-09 15:56 45.95445 1.42523 40956 ft 487 kts 101°
2026-05-09 15:56 45.95232 1.47396 40951 ft 491 kts 89°
2026-05-09 15:57 45.95600 1.57178 40933 ft 490 kts 90°
2026-05-09 15:57 45.95989 1.66946 40928 ft 490 kts 90°
2026-05-09 15:58 45.96355 1.76708 40923 ft 489 kts 90°
2026-05-09 15:58 45.96720 1.86483 40920 ft 489 kts 90°
2026-05-09 15:59 45.97073 1.96245 40920 ft 490 kts 90°
2026-05-09 15:59 45.97419 2.06031 40922 ft 490 kts 90°
2026-05-09 16:00 45.97758 2.15830 40917 ft 490 kts 90°
2026-05-09 16:00 45.98087 2.25622 40911 ft 490 kts 90°
2026-05-09 16:01 45.98408 2.35397 40913 ft 490 kts 90°
2026-05-09 16:01 45.98721 2.45182 40911 ft 490 kts 90°
2026-05-09 16:02 45.99024 2.54897 40910 ft 490 kts 90°
2026-05-09 16:02 45.99464 2.69569 40916 ft 490 kts 90°
2026-05-09 16:03 45.99739 2.79351 40914 ft 489 kts 93°
2026-05-09 16:03 45.99443 2.84178 40946 ft 483 kts 105°
2026-05-09 16:03 45.98728 2.88893 40926 ft 484 kts 106°
2026-05-09 16:04 45.97245 2.98323 40929 ft 484 kts 106°
2026-05-09 16:04 45.95775 3.07755 40935 ft 483 kts 106°
2026-05-09 16:05 45.94285 3.17186 40940 ft 484 kts 106°
2026-05-09 16:05 45.92793 3.26613 40932 ft 484 kts 106°
2026-05-09 16:06 45.91290 3.36038 40927 ft 484 kts 106°
2026-05-09 16:06 45.89780 3.45456 40923 ft 484 kts 106°
2026-05-09 16:07 45.88259 3.54892 40917 ft 486 kts 106°
2026-05-09 16:07 45.86795 3.64346 40916 ft 485 kts 105°
2026-05-09 16:08 45.85345 3.73793 40923 ft 485 kts 106°
2026-05-09 16:08 45.83866 3.83231 40922 ft 484 kts 105°
2026-05-09 16:09 45.82399 3.92647 40926 ft 484 kts 106°
2026-05-09 16:09 45.80923 4.01990 40939 ft 484 kts 106°
2026-05-09 16:10 45.79438 4.11389 40947 ft 484 kts 106°
2026-05-09 16:10 45.77939 4.20789 40953 ft 484 kts 106°
2026-05-09 16:11 45.76431 4.30208 40950 ft 485 kts 106°
2026-05-09 16:11 45.74915 4.39617 40949 ft 485 kts 106°
2026-05-09 16:12 45.73391 4.49030 40947 ft 486 kts 106°
2026-05-09 16:12 45.71858 4.58437 40951 ft 486 kts 106°
2026-05-09 16:13 45.70314 4.67865 40950 ft 486 kts 106°
2026-05-09 16:13 45.68759 4.77301 40957 ft 487 kts 106°
2026-05-09 16:14 45.67196 4.86737 40960 ft 488 kts 106°
2026-05-09 16:14 45.65625 4.96172 40962 ft 488 kts 106°
2026-05-09 16:15 45.64313 5.04006 40963 ft 489 kts 106°
2026-05-09 16:15 45.62721 5.13468 40961 ft 489 kts 107°
2026-05-09 16:16 45.61122 5.22919 40954 ft 489 kts 107°
2026-05-09 16:16 45.59517 5.32354 40950 ft 489 kts 107°
2026-05-09 16:17 45.57906 5.41772 40949 ft 490 kts 107°
2026-05-09 16:17 45.56277 5.51247 40952 ft 491 kts 107°
2026-05-09 16:18 45.54498 5.60632 40947 ft 491 kts 107°
2026-05-09 16:18 45.52836 5.69641 40946 ft 491 kts 108°
2026-05-09 16:19 45.51010 5.79019 40945 ft 491 kts 108°
2026-05-09 16:19 45.49226 5.88409 40937 ft 491 kts 108°
2026-05-09 16:20 45.46802 5.97382 40962 ft 482 kts 127°
2026-05-09 16:20 45.42730 6.04935 40962 ft 482 kts 133°
2026-05-09 16:21 45.38491 6.12354 40964 ft 484 kts 133°
2026-05-09 16:21 45.34259 6.19801 40975 ft 483 kts 133°
2026-05-09 16:22 45.30018 6.27206 40984 ft 483 kts 133°
2026-05-09 16:22 45.25771 6.34625 41000 ft 484 kts 133°
2026-05-09 16:23 45.21578 6.41925 40901 ft 471 kts 133°